STARLINK-2564, 48284

Orbit data source: Space-Track

STARLINK-2564, 48284 is a payload satellite owned by SpaceX/Seattle (US) in LEO that was launched on Thu, 29 Apr 2021 UTC via an FALCON 9 launch vehicle from the Air Force Eastern Test Range (AFETR). Payload-class satellites include a variety of spacecraft equipped with specific instruments for various scientific and technological missions. These include communications satellites like Starlink; space stations such as the ISS; scientific satellites like the Hubble; Earth observation satellites from companies like Planet Labs, Umbra, and HawkEye 360; GPS; miniature CubeSats for education and research; and military/defense satellites.

Loading next visibility...
Identifier
48284, 2021-036J
Orbit
LEO
Country
Flag of USUS
Related business
Manufacturer
SpaceX/Seattle
Mission
Operational Commercial Communications
Bus & Motor
STARLINK, Unknown motor
Mass
260 kg wet, ~248 kg dry
Launch date (UTC)
2021-04-29 (4 years ago)
Launch vehicle
FALCON 9
Launch site
Air Force Eastern Test Range (AFETR)
Object type
Payload
Rocket body
Debris
Shape & HBR
Box + 1 Pan, 10.1 m
Radar Cross Section
13.562 m², Large (>1 m²)

Expand to show TLE details & history
Last TLE update: 6 hours ago

TLE from 6 hours ago
0 STARLINK-2564
1 48284U 21036J   25292.87302389 -.00002076  00000-0 -12041-3 0  9996
2 48284  53.0565 353.7689 0001794  96.4576 263.6617 15.06422020247085
Epoch: 2025-10-19T20:57Z
TLE epoch observation values (Epoch: 2025-10-19T20:57:09.264Z)
Latitude
-0.00003°
Longitude
10.89683°
Altitude
548.161 km
Speed
7.589 km/s
True Right ascension
23h 35m 04s
True Declination
0° 00' 00"
Sunlit
Object was in full shadow at epoch
Visualization orbit readout
Latitude
Unknown
Longitude
Unknown
Altitude
Unknown
Speed
Unknown
Apparent Right ascension
Unknown
Apparent Declination
Unknown
Sunlit
N/A
Visualization observer readout
Local Sidereal Time
22:09:36
Azimuth
Unknown
Elevation
Unknown
Doppler factor
Unknown
Orbital elements
Apogee altitude
548.657 km
Perigee altitude
546.172 km
Semi-major axis
6,925.551 km
Eccentricity
0.00018
Inclination
53.0565°
RAAN
353.7689°
Arg. of periapsis
96.4576°
True anomaly
263.64127°
Mean anomaly
263.6617°
Eccentric anomaly
263.65148°
Mean motion
3.76584 °/min
Orbital period
95.6 mins
BSTAR
-0.00012041
Loading maneuver chart data...
Computing Atmospheric mass density...
Loading historical data...
Loading historical data...
Loading historical data...
Loading historical data...
Loading historical data...
Loading historical data...
Loading historical data...

Documentation

Showing up to 5 results
|